Location: Biharia
(46.4333°N, 22.8000°E)
Time: 00:11:56
(UTC+00:00)

CSL-04 Rocket - Pass Details

Date: 16 October 2021
Orbit: 805 x 860 km, 98.9° (Epoch: 05 December)

Event Time Altitude Azimuth Distance (km) Brightness Sun altitude
Exits shadow 17:48:34 28° 160° (SSE) 1,557 4.8 -22.8°
Maximum altitude 17:51:39 85° 74° (ENE) 865 3.6 -23.3°
Drops below altitude 10° 17:57:14 10° 346° (NNW) 2,507 6.5 -24.3°
Sets 17:59:38 0° 346° (NNW) 3,450 7.2 -24.7°
